Weather History for Pontiac, MI

Change the Weather History Date:

Sunday, November 11, 2012

  Actual Average Record
Temperature  
Mean Temperature 59 °F -  
Max Temperature 66 °F 45 °F 66 °F (2012)
Min Temperature 52 °F 31 °F 23 °F (1997)
Degree Days  
Heating Degree Days 6    
Growing Degree Days 9 (Base 50)    
Moisture  
Dew Point 41 °F    
Average Humidity 51    
Maximum Humidity 69    
Minimum Humidity 39    
Precipitation  
Precipitation 0.00 in - - ()
Sea Level Pressure  
Sea Level Pressure 30.04 in    
Wind  
Wind Speed 12 mph (South)    
Max Wind Speed 21 mph    
Max Gust Speed 31 mph    
Visibility 10 miles    
Events      
Averages and records for this station are not official NWS values.
T = Trace of Precipitation, MM = Missing Value Source: NWS Daily Summary

Daily Weather History Graph

Daily Weather History Graph

Search for Another Location

Airport:

Trip Planner

Search our weather history database for the weather conditions in past years. The results will help you decide how hot, cold, wet, or windy it might be!

Date:

Astronomy

Nov. 11, 2012 Rise Set
Actual Time 7:20 AM EST 5:14 PM EST
Civil Twilight 6:50 AM EST 5:44 PM EST
Nautical Twilight 6:16 AM EST 6:18 PM EST
Astronomical Twilight 5:43 AM EST 6:51 PM EST
Moon 4:30 AM EST (11/11) 3:39 PM EST (11/11)
Length of Visible Light 10h 53m
Length of Day
9h 53m
Waning Crescent, 7% of the Moon is Illuminated
Nov 11
Waning Crescent
Nov 13
New
Nov 20
First Quarter
Nov 28
Full
Dec 6
Last Quarter

Hourly Weather History & Observations

Time (EST) Temp. Dew Point Humidity Pressure Visibility Wind Dir Wind Speed Gust Speed Precip Events Conditions
12:53 AM 60.1 °F 45.0 °F 57% 30.04 in 10.0 mi SW 12.7 mph 18.4 mph 0.00 in   Clear
1:53 AM 60.1 °F 44.1 °F 55% 30.04 in 10.0 mi SSW 10.4 mph 17.3 mph N/A   Clear
2:53 AM 59.0 °F 43.0 °F 55% 30.06 in 10.0 mi SSW 9.2 mph - N/A   Clear
3:53 AM 57.0 °F 43.0 °F 59% 30.07 in 10.0 mi SSW 6.9 mph - N/A   Clear
4:53 AM 55.9 °F 43.0 °F 62% 30.08 in 10.0 mi SSW 10.4 mph - N/A   Clear
5:53 AM 55.0 °F 42.1 °F 62% 30.10 in 10.0 mi SSW 10.4 mph - N/A   Clear
6:53 AM 52.0 °F 42.1 °F 69% 30.12 in 10.0 mi South 8.1 mph - N/A   Partly Cloudy
7:53 AM 52.0 °F 42.1 °F 69% 30.12 in 10.0 mi South 8.1 mph - N/A   Partly Cloudy
9:53 AM 57.0 °F 42.1 °F 57% 30.11 in 10.0 mi South 13.8 mph 24.2 mph N/A   Mostly Cloudy
10:53 AM 57.9 °F 42.1 °F 56% 30.11 in 10.0 mi South 12.7 mph 20.7 mph N/A   Mostly Cloudy
11:53 AM 61.0 °F 44.1 °F 54% 30.09 in 10.0 mi South 15.0 mph 21.9 mph N/A   Mostly Cloudy
12:53 PM 64.0 °F 45.0 °F 50% 30.05 in 10.0 mi South 19.6 mph 27.6 mph N/A   Mostly Cloudy
1:53 PM 66.0 °F 46.9 °F 50% 30.02 in 10.0 mi South 17.3 mph 28.8 mph N/A   Mostly Cloudy
2:53 PM 66.9 °F 46.9 °F 49% 30.01 in 10.0 mi South 20.7 mph 28.8 mph N/A   Scattered Clouds
3:53 PM 66.0 °F 45.0 °F 47% 30.00 in 10.0 mi South 12.7 mph 24.2 mph N/A   Partly Cloudy
4:53 PM 64.0 °F 41.0 °F 43% 30.01 in 10.0 mi South 16.1 mph 29.9 mph N/A   Partly Cloudy
5:53 PM 63.0 °F 37.9 °F 40% 30.00 in 10.0 mi South 18.4 mph 24.2 mph N/A   Scattered Clouds
6:53 PM 62.1 °F 39.0 °F 43% 30.00 in 10.0 mi South 16.1 mph 31.1 mph N/A   Scattered Clouds
7:53 PM 60.8 °F 35.6 °F 39% 29.99 in 10.0 mi South 13.8 mph 24.2 mph N/A   Mostly Cloudy
8:53 PM 60.1 °F 36.0 °F 41% 29.99 in 10.0 mi South 11.5 mph - N/A   Overcast
9:53 PM 60.1 °F 35.1 °F 39% 29.99 in 10.0 mi South 17.3 mph 25.3 mph N/A   Overcast
10:53 PM 59.0 °F 35.1 °F 41% 29.97 in 10.0 mi South 9.2 mph - N/A   Overcast
11:53 PM 59.0 °F 36.0 °F 42% 29.95 in 10.0 mi South 9.2 mph 16.1 mph N/A   Overcast